959  
ASUS43 KGLD 171108  
RWRGLD  
 
GOODLAND FORECAST AREA HOURLY WEATHER ROUNDUP  
NATIONAL WEATHER SERVICE GOODLAND KS  
500 AM MDT FRI AUG 17 2018  
   
..OFFICIAL OBSERVATIONS
 
 
 
CITY SKY/WX TMP DP RH WIND PRES REMARKS
 
GOODLAND KS CLEAR 61 61 100 S6 30.17F  
HILL CITY KS CLEAR 63 62 97 CALM 30.12R  
IMPERIAL NEB CLEAR 55 54 96 W3 30.18R  
MCCOOK NEB CLEAR 59 58 96 W7 30.14R FOG  
AKRON CO CLEAR 63 55 75 S9 30.24S  
BURLINGTON CO PTCLDY 61 60 97 SE8 30.21S  
LIMON CO PTCLDY 52 51 97 CALM 30.30R  

 
   
..UNOFFICIAL OBSERVATIONS
 
 
 
CITY SKY/WX TMP DP RH WIND PRES REMARKS
 
COLBY KS CLEAR 59 59 100 W5 30.18S FOG  
NORTON KS CLEAR 61 61 100 CALM 30.12  
SHARON SPRINGS N/A 60 58 95 CALM N/A  
KIT CARSON CO N/A 62 57 84 CALM N/A  
YUMA CO FAIR 54 39 58 SW3 30.21  

 
 
 
CLICK HERE TO GO TO PREVIOUS BULLETINS.

The Nexlab KS Page
The Nexlab CO Page
The Nexlab NE Page Main Text Page